Weather History for Thomasville, GA

Change the Weather History Date:

Thursday, October 31, 2013

  Actual Average (KVLD) Record (KVLD)
Temperature  
Mean Temperature 70 °F 64 °F  
Max Temperature 80 °F 77 °F 87 °F (1998)
Min Temperature 59 °F 52 °F 33 °F (1996)
Degree Days  
Heating Degree Days 0 4  
Month to date heating degree days 41  
Since 1 July heating degree days 43  
Cooling Degree Days 4 3  
Month to date cooling degree days 156  
Year to date cooling degree days 2381  
Growing Degree Days 20 (Base 50)    
Moisture  
Dew Point 60 °F    
Average Humidity 77    
Maximum Humidity 100    
Minimum Humidity 39    
Precipitation  
Precipitation 0.00 in 0.10 in 1.14 in (1997)
Month to date precipitation 3.20  
Year to date precipitation 44.87  
Sea Level Pressure  
Sea Level Pressure 30.08 in    
Wind  
Wind Speed 4 mph (South)    
Max Wind Speed 15 mph    
Max Gust Speed 22 mph    
Visibility 10 miles    
Events      
T = Trace of Precipitation, MM = Missing Value Source: NWS Daily Summary

Daily Weather History Graph

Daily Weather History Graph

Search for Another Location

Airport:

Trip Planner

Search our weather history database for the weather conditions in past years. The results will help you decide how hot, cold, wet, or windy it might be!

Date:

Astronomy

Oct. 31, 2013 Rise Set
Actual Time 7:50 AM EDT 6:47 PM EDT
Civil Twilight 7:25 AM EDT 7:12 PM EDT
Nautical Twilight 6:56 AM EDT 7:41 PM EDT
Astronomical Twilight 6:28 AM EDT 8:09 PM EDT
Moon 4:49 AM EDT (10/31) 4:55 PM EDT (10/31)
Length of Visible Light 11h 47m
Length of Day
10h 57m
Waning Crescent, 10% of the Moon is Illuminated
Oct 31
Waning Crescent
Nov 3
New
Nov 10
First Quarter
Nov 17
Full
Nov 25
Last Quarter

Hourly Weather History & Observations

Time (EDT) Temp. Heat Index Dew Point Humidity Pressure Visibility Wind Dir Wind Speed Gust Speed Precip Events Conditions
12:15 AM 64.4 °F - 57.2 °F 77% 30.19 in 10.0 mi SE 3.5 mph - N/A   Clear
12:35 AM 62.6 °F - 59.0 °F 88% 30.19 in 10.0 mi SE 3.5 mph - N/A   Clear
12:55 AM 62.6 °F - 59.0 °F 88% 30.19 in 10.0 mi SE 3.5 mph - N/A   Clear
1:15 AM 62.6 °F - 59.0 °F 88% 30.18 in 10.0 mi SE 3.5 mph - N/A   Clear
1:35 AM 62.6 °F - 59.0 °F 88% 30.18 in 10.0 mi ESE 3.5 mph - N/A   Clear
1:55 AM 62.6 °F - 59.0 °F 88% 30.17 in 10.0 mi ESE 3.5 mph - N/A   Clear
2:15 AM 62.6 °F - 59.0 °F 88% 30.17 in 10.0 mi Calm Calm - N/A   Clear
2:35 AM 62.6 °F - 59.0 °F 88% 30.17 in 10.0 mi Calm Calm - N/A   Clear
2:55 AM 60.8 °F - 60.8 °F 100% 30.17 in 10.0 mi Calm Calm - N/A   Clear
3:15 AM 60.8 °F - 60.8 °F 100% 30.16 in 10.0 mi Calm Calm - N/A   Clear
3:35 AM 60.8 °F - 60.8 °F 100% 30.15 in 10.0 mi Calm Calm - N/A   Clear
3:55 AM 60.8 °F - 60.8 °F 100% 30.15 in 10.0 mi SE 3.5 mph - N/A   Clear
4:15 AM 60.8 °F - 60.8 °F 100% 30.14 in 10.0 mi Calm Calm - N/A   Clear
4:35 AM 60.8 °F - 60.8 °F 100% 30.14 in 10.0 mi Calm Calm - N/A   Clear
4:55 AM 60.8 °F - 60.8 °F 100% 30.14 in 10.0 mi Calm Calm - N/A   Clear
5:15 AM 60.8 °F - 60.8 °F 100% 30.14 in 10.0 mi Calm Calm - N/A   Clear
5:35 AM 60.8 °F - 60.8 °F 100% 30.14 in 10.0 mi Calm Calm - N/A   Clear
5:55 AM 60.8 °F - 60.8 °F 100% 30.14 in 10.0 mi Calm Calm - N/A   Clear
6:15 AM 60.8 °F - 60.8 °F 100% 30.14 in 10.0 mi Calm Calm - N/A   Clear
6:35 AM 60.8 °F - 60.8 °F 100% 30.14 in 10.0 mi Calm Calm - N/A   Clear
6:55 AM 59.0 °F - 59.0 °F 100% 30.14 in 10.0 mi Calm Calm - N/A   Clear
7:15 AM 59.0 °F - 59.0 °F 100% 30.14 in 10.0 mi Calm Calm - N/A   Scattered Clouds
7:35 AM 59.0 °F - 59.0 °F 100% 30.13 in 10.0 mi Calm Calm - N/A   Scattered Clouds
7:55 AM 60.8 °F - 60.8 °F 100% 30.13 in 10.0 mi SE 3.5 mph - N/A   Clear
8:15 AM 60.8 °F - 60.8 °F 100% 30.14 in 10.0 mi Calm Calm - N/A   Clear
8:35 AM 62.6 °F - 62.6 °F 100% 30.15 in 10.0 mi Calm Calm - N/A   Clear
8:55 AM 64.4 °F - 62.6 °F 94% 30.14 in 10.0 mi SSE 6.9 mph - N/A   Clear
9:15 AM 66.2 °F - 64.4 °F 94% 30.14 in 10.0 mi SE 8.1 mph - N/A   Clear
9:35 AM 68.0 °F - 64.4 °F 88% 30.14 in 10.0 mi SE 6.9 mph - N/A   Clear
9:55 AM 69.8 °F - 64.4 °F 83% 30.14 in 10.0 mi SE 5.8 mph - N/A   Clear
10:15 AM 69.8 °F - 64.4 °F 83% 30.14 in 10.0 mi SSE 5.8 mph - N/A   Clear
10:35 AM 71.6 °F - 64.4 °F 78% 30.14 in 10.0 mi SE 8.1 mph - N/A   Clear
10:55 AM 73.4 °F - 64.4 °F 73% 30.14 in 10.0 mi South 6.9 mph - N/A   Clear
11:15 AM 77.0 °F - 64.4 °F 65% 30.13 in 10.0 mi South 9.2 mph 16.1 mph N/A   Clear
11:35 AM 77.0 °F - 64.4 °F 65% 30.13 in 10.0 mi South 9.2 mph 17.3 mph N/A   Scattered Clouds
11:55 AM 78.8 °F - 64.4 °F 61% 30.12 in 10.0 mi South 10.4 mph - N/A   Mostly Cloudy
12:15 PM 78.8 °F - 64.4 °F 61% 30.12 in 10.0 mi South 13.8 mph - N/A   Scattered Clouds
12:35 PM 77.0 °F - 64.4 °F 65% 30.10 in 10.0 mi South 10.4 mph - N/A   Scattered Clouds
12:55 PM 78.8 °F - 64.4 °F 61% 30.10 in 10.0 mi South 10.4 mph 16.1 mph N/A   Scattered Clouds
1:15 PM 80.6 °F 81.8 °F 62.6 °F 54% 30.09 in 10.0 mi South 10.4 mph 16.1 mph N/A   Scattered Clouds
1:35 PM 80.6 °F 81.5 °F 60.8 °F 51% 30.08 in 10.0 mi SSW 15.0 mph 19.6 mph N/A   Scattered Clouds
1:55 PM 80.6 °F 81.5 °F 60.8 °F 51% 30.07 in 10.0 mi South 8.1 mph - N/A   Scattered Clouds
2:15 PM 80.6 °F 81.5 °F 60.8 °F 51% 30.06 in 10.0 mi SSW 10.4 mph 17.3 mph N/A   Mostly Cloudy
2:35 PM 80.6 °F 81.1 °F 59.0 °F 48% 30.04 in 10.0 mi South 12.7 mph 19.6 mph N/A   Scattered Clouds
2:55 PM 80.6 °F 80.3 °F 53.6 °F 39% 30.04 in 10.0 mi SSW 11.5 mph 21.9 mph N/A   Clear
3:15 PM 80.6 °F 80.3 °F 53.6 °F 39% 30.03 in 10.0 mi SSW 12.7 mph 21.9 mph N/A   Clear
3:35 PM 80.6 °F 80.3 °F 53.6 °F 39% 30.02 in 10.0 mi South 11.5 mph 19.6 mph N/A   Clear
3:55 PM 80.6 °F 80.3 °F 53.6 °F 39% 30.02 in 10.0 mi South 11.5 mph - N/A   Clear
4:15 PM 80.6 °F 80.3 °F 53.6 °F 39% 30.01 in 10.0 mi South 6.9 mph 10.4 mph N/A   Clear
4:35 PM 80.6 °F 80.3 °F 53.6 °F 39% 30.01 in 10.0 mi SSW 9.2 mph - N/A   Clear
4:55 PM 78.8 °F - 53.6 °F 42% 30.00 in 10.0 mi South 9.2 mph - N/A   Clear
5:15 PM 77.0 °F - 55.4 °F 47% 29.99 in 10.0 mi SSW 9.2 mph - N/A   Clear
5:35 PM 77.0 °F - 55.4 °F 47% 29.99 in 10.0 mi SSW 6.9 mph - N/A   Clear
5:55 PM 77.0 °F - 57.2 °F 50% 29.99 in 10.0 mi SSW 5.8 mph - N/A   Clear
6:15 PM 73.4 °F - 59.0 °F 61% 29.99 in 10.0 mi SSW 3.5 mph - N/A   Clear
6:35 PM 73.4 °F - 59.0 °F 61% 29.99 in 10.0 mi South 6.9 mph - N/A   Clear
6:55 PM 73.4 °F - 59.0 °F 61% 29.98 in 10.0 mi South 6.9 mph - N/A   Clear
7:15 PM 71.6 °F - 59.0 °F 64% 29.99 in 10.0 mi SSW 6.9 mph - N/A   Clear
7:35 PM 71.6 °F - 59.0 °F 64% 29.99 in 10.0 mi SSW 3.5 mph - N/A   Clear
7:55 PM 69.8 °F - 59.0 °F 68% 29.99 in 10.0 mi SSW 4.6 mph - N/A   Clear
8:15 PM 69.8 °F - 60.8 °F 73% 29.99 in 10.0 mi South 3.5 mph - N/A   Clear
8:35 PM 68.0 °F - 60.8 °F 78% 29.99 in 10.0 mi South 3.5 mph - N/A   Clear
8:55 PM 68.0 °F - 60.8 °F 78% 29.99 in 10.0 mi South 4.6 mph - N/A   Clear
9:15 PM 68.0 °F - 60.8 °F 78% 29.99 in 10.0 mi South 4.6 mph - N/A   Clear
9:35 PM 68.0 °F - 60.8 °F 78% 30.00 in 10.0 mi South 4.6 mph - N/A   Clear
9:55 PM 68.0 °F - 62.6 °F 83% 29.99 in 10.0 mi SSE 4.6 mph - N/A   Clear
10:15 PM 68.0 °F - 62.6 °F 83% 30.00 in 10.0 mi SSW 4.6 mph - N/A   Clear
10:35 PM 66.2 °F - 64.4 °F 94% 30.01 in 10.0 mi SSW 4.6 mph - N/A   Clear
10:55 PM 66.2 °F - 64.4 °F 94% 30.01 in 10.0 mi SSW 4.6 mph - N/A   Clear
11:15 PM 66.2 °F - 64.4 °F 94% 30.01 in 10.0 mi South 4.6 mph - N/A   Clear
11:35 PM 66.2 °F - 66.2 °F 100% 29.99 in 10.0 mi South 4.6 mph - N/A   Clear
11:55 PM 66.2 °F - 66.2 °F 100% 29.99 in 10.0 mi South 5.8 mph - N/A   Clear